Starlink 30827

operational
NORAD ID: 58195 Int'l Des: 2023-167 Owner: SPXS Country: US Constellation: starlink
LEOCIRCULAR

About Starlink 30827

Description loading...

Live Position

Loading 3D Globe...

Upcoming Passes

Altitude History

Altitude vs Time

uPlot chart will show altitude changes over time

Two-Line Element Set

1 58195U 23167W 25303.24533989 .00000786 00000-0 73212-4 0 9993
2 58195 43.0040 134.6774 0001168 263.1318 96.9392 15.02539563111339
Epoch: Oct 30, 2025 • Age: 24 hours

Current Status

Altitude 560.8 km
Velocity 7.59 km/s
Sub-Earth Point 33.10°N, 129.53°E
Launch Date Oct 30, 2023
Age 2 years
Type internet

Technical Details

Classification Payload
Mass 730.00 kg
Dry Mass 700.00 kg
Total Mass 730.00 kg
Length 0.30 m
Diameter 4.10 m
Span 29.00 m
Shape Box + pan
Manufacturer SPXS
Bus Type Starlink V2M
Phase Status In Orbit
Owner/State SPXS/US

Large Constellations

Loading constellations...